[[{"header":{"parameterUnit":"m.s-1","parameterCategory":2,"la1":30.2991,"la2":30.254,"lo1":-89.0895,"lo2":-89.0444,"dy":0.0017,"dx":0.0017,"nx":28,"ny":28,"refTime":"2023-11-06T09:00:00:Z","depth":"0","parameterNumber":2,"parameterNumberName":"U-component_of_CURRENTS"},"data":[0,0,0,0,0,0,0,0,0,0,0,0,0,0,0,0,0,0,0,0,0,0,0,0,0,0,0,0,0,0,0,0,0,0,0,0,0,0,0,0,0,0,0,0,0,0,0,0,0,0,0,0,0,0,0,0,0,0,-0.0127,-0.0126,0,-0.0059,-0.0058,-0.0057,-0.0032,-0.0032,-0.0032,-0.0033,0.005,0.0052,0.0055,0,0,0,0,0,0,0,0,0,0,0,0,0,-0.0215,-0.0214,-0.0127,-0.0126,-0.0125,-0.0059,-0.0058,-0.0057,-0.0032,-0.0032,-0.0032,-0.0033,0.0049,0.0052,0.0055,0,0,0,0,0,0,0,0,0,0,0,0,0,-0.0165,-0.0213,-0.0127,-0.0104,-0.0101,-0.0059,-0.0058,-0.0057,-0.0032,-0.0032,-0.0033,-0.0033,0.0048,0.0052,0.0055,0.0082,0,0,0.0066,0.0068,0,0,0,0,0,0,0,0,-0.0168,-0.0162,-0.0108,-0.0106,-0.0102,-0.0054,-0.0059,-0.0009,-0.0032,-0.0059,-0.0033,-0.0033,0.0017,0.0023,0.0036,0.0086,0.0089,0.0066,0.0068,0.007,0.0071,0,0,0,0,0,0,0,-0.0172,-0.0165,-0.0101,-0.0107,-0.0104,-0.009,-0.0084,-0.0049,-0.0021,-0.0057,-0.0055,-0.0046,0.0019,0.0032,0.0038,0.0091,0.0066,0.0069,0.0072,0.0073,0.0131,0.0131,0,0,0,0,0,0,-0.0179,-0.0168,-0.0103,-0.0098,-0.0136,-0.0088,-0.0081,-0.007,-0.0021,-0.0014,-0.0046,-0.0045,0.0026,0.0034,0.0041,0.0027,0.007,0.0073,0.0075,0.0132,0.0131,0.0131,0,0,0,0,0,0,-0.0181,-0.0174,-0.0105,-0.0132,-0.0122,-0.0087,-0.0074,-0.0068,-0.0064,-0.0013,-0.0006,-0.0049,0.0026,0.0036,0.0061,0.0032,0.0075,0.0078,0.0133,0.0132,0.0131,0.0031,0,0,0,0,0,0,-0.0184,-0.0175,-0.0163,-0.0132,-0.012,-0.0091,-0.0073,-0.0067,-0.0058,-0.0056,-0.0013,-0.0005,0.0027,0.0055,0.0064,0.0038,0.0081,0.0133,0.0132,0.0131,0.0035,0.0027,0.002,0,0,0,0,0,-0.0188,-0.0167,-0.0163,-0.0155,-0.0107,-0.0092,-0.0085,-0.0061,-0.0058,-0.0059,-0.0031,-0.0007,0.0055,0.0058,0.0069,0.0042,0.0134,0.0132,0.0131,0.0038,0.0028,0.002,0,0,0,0,0,0,-0.0184,-0.0161,-0.0157,-0.0126,-0.0118,-0.0087,-0.0074,-0.007,-0.0048,-0.0044,-0.0006,0.0004,0.0015,0.0048,0.005,0.0057,0.0095,0.0096,0.0021,0.0012,0.0005,-0.0061,0.0084,0,0,0,0,0,-0.0183,-0.0172,-0.0151,-0.0131,-0.0126,-0.0107,-0.0095,-0.0086,-0.0064,-0.0055,-0.0034,-0.0004,0.002,0.003,0.0063,0.007,0.004,0.0059,0.0052,0.0045,-0.0001,-0.0063,-0.0083,0.0126,0.0126,0.0126,0,0,-0.0174,-0.0161,-0.0153,-0.0132,-0.0119,-0.0121,-0.0101,-0.0089,-0.0107,-0.0048,-0.006,-0.0024,0.0019,0.0025,0.0031,0.0045,-0.0028,0.0043,0.0037,-0.0006,-0.0067,-0.0088,-0.0107,0.0126,0.0126,0.0126,0,0,-0.0163,-0.0146,-0.0139,-0.0139,-0.0128,-0.0126,-0.0131,-0.0117,-0.0127,-0.0126,-0.0095,-0.0089,-0.0043,-0.0038,-0.0023,-0.0053,-0.0061,-0.003,-0.0131,-0.019,-0.0209,-0.0227,-0.0294,-0.0316,-0.0041,-0.0041,-0.0041,0,-0.0154,-0.0144,-0.0135,-0.0136,-0.0141,-0.0137,-0.0146,-0.0156,-0.0143,-0.0177,-0.0142,-0.0138,-0.0084,-0.0119,-0.0123,-0.0076,-0.0116,-0.01,-0.0206,-0.0223,-0.024,-0.0304,-0.0328,-0.0046,-0.0046,-0.0045,-0.0045,0,-0.0145,-0.0143,-0.014,-0.0152,-0.0161,-0.0163,-0.0185,-0.0211,-0.0223,-0.0249,-0.0293,-0.0243,-0.0247,-0.0226,-0.0178,-0.0265,-0.0259,-0.0206,-0.0195,-0.0268,-0.0329,-0.0352,-0.0053,-0.0052,-0.005,-0.0049,0,0,-0.0107,-0.0131,-0.0127,-0.0148,-0.0172,-0.0178,-0.0234,-0.0292,-0.0357,-0.0368,-0.0465,-0.042,-0.0422,-0.0406,-0.0359,-0.0418,-0.0537,-0.0372,-0.0372,-0.0462,-0.0698,-0.0617,-0.0633,-0.0511,-0.0515,-0.0518,-0.0697,0,-0.0104,-0.0118,-0.0134,-0.0166,-0.0183,-0.0223,-0.0282,-0.0345,-0.0405,-0.0501,-0.0524,-0.0553,-0.0482,-0.0473,-0.0534,-0.0533,-0.0603,-0.0496,-0.0595,-0.0599,-0.0537,-0.0659,-0.0494,-0.0634,-0.072,-0.0723,-0.0726,0,-0.0084,-0.0106,-0.0127,-0.0202,-0.0213,-0.023,-0.0347,-0.0393,-0.0539,-0.0589,-0.0674,-0.0698,-0.0778,-0.0689,-0.0805,-0.0744,-0.0741,-0.0751,-0.0756,-0.0672,-0.0561,-0.0571,-0.0672,-0.0695,-0.0761,-0.0758,-0.0756,0,-0.0061,-0.0102,-0.0124,-0.014,-0.0217,-0.0244,-0.0283,-0.0413,-0.0472,-0.0633,-0.0705,-0.0833,-0.0871,-0.0928,-0.0931,-0.0879,-0.1083,-0.0991,-0.0936,-0.093,-0.0808,-0.0783,-0.0964,-0.1098,-0.1098,-0.1097,-0.1097,0,-0.0046,-0.0065,-0.0104,-0.011,-0.0152,-0.0214,-0.028,-0.0358,-0.0493,-0.0581,-0.0713,-0.0817,-0.0934,-0.105,-0.104,-0.1082,-0.1157,-0.1013,-0.099,-0.0833,-0.0809,-0.0832,-0.0831,-0.1104,-0.1103,-0.1101,-0.11,0,-0.0003,-0.0032,-0.0049,-0.011,-0.0127,-0.0136,-0.0206,-0.0273,-0.0402,-0.0527,-0.0567,-0.0831,-0.0984,-0.1099,-0.1226,-0.1192,-0.1209,-0.1216,-0.1035,-0.0987,-0.0913,-0.092,-0.1105,-0.1066,-0.1209,-0.1209,-0.1208,0,0.0012,0.0012,-0.0009,-0.0008,-0.0015,-0.0043,-0.0074,-0.0186,-0.0251,-0.0512,-0.0573,-0.0816,-0.0936,-0.1155,-0.1167,-0.1207,-0.1217,-0.1096,-0.0947,-0.0952,-0.0944,-0.0966,-0.092,-0.0834,-0.083,-0.0827,-0.0825,0,0.0044,0.0061,0.0055,0.0066,0.0067,0.0048,0.0006,-0.0024,-0.0179,-0.0276,-0.0463,-0.0591,-0.0847,-0.0857,-0.0964,-0.0989,-0.1043,-0.1034,-0.1094,-0.074,-0.0726,-0.0658,-0.069,-0.0799,-0.0801,-0.0803,-0.0805,-0.0806,0.0084,0.0109,0.012,0.0139,0.0127,0.0134,0.0143,0.011,0.0065,-0.0039,-0.0235,-0.0287,-0.0406,-0.0528,-0.0687,-0.0794,-0.0833,-0.0732,-0.0769,-0.0817,-0.07,-0.0687,-0.0716,-0.0718,-0.072,-0.0721,-0.0722,0,0.0103,0.0138,0.0172,0.019,0.019,0.0181,0.0168,0.0189,0.0208,0.0209,0.0148,0.0237,0.0131,-0.0122,-0.0303,-0.0445,-0.051,-0.0571,-0.0568,-0.0551,-0.0583,-0.048,-0.0391,-0.0391,-0.0391,-0.0391,-0.0391,-0.039,0.0111,0.0158,0.0198,0.0238,0.0242,0.0264,0.0281,0.0346,0.0388,0.052,0.0638,0.0655,0.0486,0.0115,-0.0256,-0.0378,-0.0463,-0.0476,-0.0594,-0.0598,-0.0616,-0.0633,-0.0541,-0.0466,-0.0466,-0.0467,-0.0467,-0.0467]},{"header":{"parameterUnit":"m.s-1","parameterCategory":2,"la1":30.2991,"la2":30.254,"lo1":-89.0895,"lo2":-89.0444,"dy":0.0017,"dx":0.0017,"nx":28,"ny":28,"refTime":"2023-11-06T09:00:00:Z","depth":"0","parameterNumber":3,"parameterNumberName":"V-component_of_CURRENTS"},"data":[0,0,0,0,0,0,0,0,0,0,0,0,0,0,0,0,0,0,0,0,0,0,0,0,0,0,0,0,0,0,0,0,0,0,0,0,0,0,0,0,0,0,0,0,0,0,0,0,0,0,0,0,0,0,0,0,0,0,0.0278,0.0279,0,0.0389,0.039,0.0391,0.0415,0.0415,0.0414,0.0414,0.0441,0.0442,0.0443,0,0,0,0,0,0,0,0,0,0,0,0,0,0.0163,0.0163,0.0277,0.0279,0.0281,0.0389,0.039,0.0391,0.0415,0.0415,0.0414,0.0414,0.0441,0.0442,0.0443,0,0,0,0,0,0,0,0,0,0,0,0,0,0.0231,0.0164,0.0277,0.0311,0.0315,0.0389,0.039,0.0391,0.0415,0.0415,0.0414,0.0414,0.044,0.0442,0.0443,0.0459,0,0,0.0447,0.0448,0,0,0,0,0,0,0,0,0.0227,0.0234,0.0304,0.0309,0.0314,0.0393,0.036,0.0412,0.0415,0.0371,0.0414,0.0414,0.0421,0.0424,0.0439,0.0461,0.0462,0.0447,0.0448,0.0449,0.0449,0,0,0,0,0,0,0,0.0222,0.023,0.0316,0.0306,0.0312,0.0348,0.0356,0.037,0.039,0.0375,0.0378,0.0401,0.0423,0.0437,0.0439,0.0462,0.0447,0.0449,0.045,0.045,0.0516,0.0517,0,0,0,0,0,0,0.0217,0.0225,0.0312,0.032,0.0276,0.035,0.0359,0.0363,0.0392,0.0399,0.0401,0.0401,0.0435,0.0438,0.044,0.0476,0.0449,0.045,0.0451,0.0515,0.0516,0.0517,0,0,0,0,0,0,0.0214,0.0223,0.0308,0.0281,0.0295,0.0353,0.0358,0.0366,0.0387,0.0414,0.0418,0.0415,0.0435,0.0438,0.0473,0.0477,0.0451,0.0452,0.0514,0.0516,0.0517,0.0539,0,0,0,0,0,0,0.021,0.0221,0.0226,0.028,0.0297,0.0352,0.0359,0.0368,0.0404,0.0406,0.0427,0.0429,0.0435,0.0471,0.0474,0.0478,0.0453,0.0513,0.0515,0.0516,0.0537,0.0541,0.0544,0,0,0,0,0,0.0205,0.022,0.0225,0.0236,0.0299,0.0353,0.0364,0.04,0.0405,0.0416,0.0442,0.0429,0.0483,0.0473,0.0477,0.0481,0.0512,0.0514,0.0516,0.0535,0.054,0.0544,0,0,0,0,0,0,0.0187,0.0226,0.0232,0.0261,0.0302,0.036,0.0383,0.0404,0.0435,0.0434,0.045,0.0455,0.0484,0.0485,0.0473,0.0506,0.0491,0.0494,0.0505,0.0509,0.0512,0.0476,0.0454,0,0,0,0,0,0.0181,0.019,0.0241,0.0264,0.0283,0.033,0.0358,0.0381,0.0419,0.0432,0.0452,0.0471,0.0495,0.0504,0.0522,0.0544,0.0552,0.0547,0.0551,0.0554,0.0528,0.0568,0.0573,0.0524,0.0524,0.0524,0,0,0.0187,0.0206,0.0216,0.0259,0.0291,0.0318,0.0344,0.0386,0.0408,0.0429,0.0461,0.0486,0.0506,0.0534,0.0545,0.0535,0.0578,0.0556,0.0559,0.053,0.0571,0.0576,0.058,0.0525,0.0525,0.0525,0,0,0.0194,0.021,0.0217,0.0245,0.0292,0.032,0.0331,0.0386,0.0407,0.0451,0.0469,0.0504,0.0537,0.0556,0.0569,0.0602,0.0598,0.0602,0.0587,0.0628,0.0632,0.0636,0.0675,0.0682,0.06,0.06,0.06,0,0.0195,0.0205,0.0233,0.0248,0.0264,0.0316,0.0326,0.0368,0.0428,0.0431,0.0459,0.0516,0.0547,0.0571,0.0588,0.0608,0.0625,0.0571,0.0632,0.0635,0.0639,0.0678,0.0685,0.0602,0.0601,0.0601,0.0601,0,0.0208,0.0214,0.0226,0.0243,0.0264,0.0289,0.0337,0.036,0.0392,0.0422,0.0461,0.0525,0.054,0.0575,0.0595,0.0624,0.0629,0.0637,0.0619,0.0645,0.0685,0.0692,0.0603,0.0603,0.0603,0.0602,0,0,0.0213,0.0225,0.023,0.0209,0.0256,0.0264,0.0298,0.0324,0.031,0.0401,0.0394,0.0488,0.0504,0.0519,0.0559,0.0611,0.0678,0.0627,0.0628,0.066,0.0764,0.0832,0.0846,0.0695,0.0696,0.0697,0.0792,0,0.021,0.0203,0.0219,0.0208,0.0201,0.0231,0.0237,0.0263,0.0294,0.0304,0.0392,0.0408,0.0489,0.0489,0.056,0.0639,0.0691,0.065,0.0737,0.0739,0.0792,0.0855,0.0951,0.1048,0.0799,0.08,0.0801,0,0.0221,0.0201,0.0183,0.0135,0.0132,0.0137,0.0108,0.0124,0.0159,0.0178,0.0229,0.0277,0.0371,0.0428,0.0599,0.0566,0.0651,0.0731,0.0737,0.0787,0.082,0.0978,0.107,0.1139,0.0811,0.081,0.081,0,0.0188,0.017,0.0136,0.0134,0.0107,0.0088,0.0077,0.0085,0.0062,0.0095,0.0068,0.0194,0.0237,0.0388,0.0576,0.0574,0.0761,0.0776,0.092,0.0925,0.1014,0.1026,0.1174,0.0871,0.0871,0.087,0.087,0,0.0179,0.0151,0.0113,0.0098,0.0035,0.0026,-0.0036,-0.0027,-0.0051,-0.0099,-0.0008,-0.0022,0.0225,0.0359,0.0539,0.0772,0.0739,0.0922,0.0959,0.1028,0.104,0.1107,0.1076,0.0874,0.0873,0.0872,0.0872,0,0.0173,0.0155,0.0104,0.0047,0.0027,-0.0015,-0.0094,-0.0146,-0.0171,-0.023,-0.023,-0.0161,0.0046,0.0308,0.0563,0.0712,0.1003,0.1004,0.1076,0.112,0.1321,0.1286,0.1418,0.1512,0.118,0.1182,0.1184,0,0.018,0.015,0.0073,0.0041,0.0024,-0.0049,-0.0104,-0.0167,-0.0234,-0.0324,-0.0359,-0.0217,-0.009,0.033,0.0693,0.1064,0.1107,0.1275,0.1294,0.1355,0.1342,0.1323,0.139,0.1431,0.1435,0.1438,0.144,0,0.0176,0.0146,0.0104,0.0038,-0.002,-0.0105,-0.0195,-0.0269,-0.0367,-0.0442,-0.0509,-0.0425,-0.0012,0.0449,0.0946,0.116,0.1344,0.1347,0.1401,0.1542,0.1537,0.1638,0.133,0.1468,0.1466,0.1464,0.1462,0.1461,0.0183,0.0157,0.0099,0.0046,-0.0035,-0.0125,-0.0173,-0.0296,-0.0404,-0.0476,-0.0532,-0.0403,0.0166,0.0914,0.1144,0.1649,0.157,0.1762,0.1713,0.1689,0.1784,0.1533,0.1713,0.1711,0.171,0.1709,0.1708,0,0.0181,0.0157,0.011,0.0043,-0.0039,-0.0086,-0.021,-0.0247,-0.0344,-0.0406,-0.0434,-0.0054,0.0584,0.1119,0.1844,0.2002,0.2052,0.2054,0.205,0.2105,0.19,0.1919,0.2162,0.2162,0.2162,0.2162,0.2162,0.2162,0.0188,0.015,0.0135,0.0058,0.0007,-0.0062,-0.0111,-0.0159,-0.0195,-0.0156,-0.0055,0.0048,0.0717,0.1503,0.2108,0.2197,0.2285,0.2285,0.2298,0.2135,0.2104,0.2074,0.2091,0.2366,0.2366,0.2591,0.2592,0.2593]}],[{"header":{"parameterUnit":"m.s-1","parameterCategory":2,"la1":30.2991,"la2":30.254,"lo1":-89.0895,"lo2":-89.0444,"dy":0.0017,"dx":0.0017,"nx":28,"ny":28,"refTime":"2023-11-06T09:00:00:Z","depth":"2","parameterNumber":2,"parameterNumberName":"U-component_of_CURRENTS"},"data":[0,0,0,0,0,0,0,0,0,0,0,0,0,0,0,0,0,0,0,0,0,0,0,0,0,0,0,0,0,0,0,0,0,0,0,0,0,0,0,0,0,0,0,0,0,0,0,0,0,0,0,0,0,0,0,0,0,0,-0.2517,-0.2517,0,-0.2496,-0.2496,-0.2495,-0.2443,-0.2442,-0.2441,-0.244,-0.2356,-0.2355,-0.2353,0,0,0,0,0,0,0,0,0,0,0,0,0,-0.2489,-0.249,-0.2517,-0.2517,-0.2517,-0.2496,-0.2496,-0.2495,-0.2443,-0.2442,-0.2441,-0.244,-0.2356,-0.2355,-0.2353,0,0,0,0,0,0,0,0,0,0,0,0,0,-0.2486,-0.249,-0.2517,-0.249,-0.2487,-0.2497,-0.2496,-0.2495,-0.2443,-0.2442,-0.244,-0.2439,-0.2357,-0.2355,-0.2353,-0.2366,0,0,-0.2346,-0.2345,0,0,0,0,0,0,0,0,-0.2486,-0.2486,-0.2494,-0.2492,-0.2489,-0.2473,-0.2455,-0.245,-0.2443,-0.2457,-0.244,-0.2438,-0.2392,-0.2387,-0.2383,-0.2362,-0.2359,-0.2346,-0.2345,-0.2344,-0.2343,0,0,0,0,0,0,0,-0.2486,-0.2487,-0.2506,-0.2494,-0.2491,-0.2472,-0.247,-0.2454,-0.2429,-0.2456,-0.2453,-0.2455,-0.2389,-0.2385,-0.2381,-0.2357,-0.2346,-0.2344,-0.2343,-0.2342,-0.2307,-0.2307,0,0,0,0,0,0,-0.2497,-0.2488,-0.2507,-0.2506,-0.2487,-0.2474,-0.2471,-0.2477,-0.243,-0.2423,-0.2456,-0.2453,-0.239,-0.2383,-0.2377,-0.2344,-0.2344,-0.2342,-0.2341,-0.2306,-0.2307,-0.2307,0,0,0,0,0,0,-0.2496,-0.2499,-0.2507,-0.2498,-0.2498,-0.2476,-0.2483,-0.2478,-0.2456,-0.2432,-0.2422,-0.2438,-0.2388,-0.238,-0.2356,-0.2342,-0.2341,-0.2339,-0.2306,-0.2306,-0.2307,-0.2306,0,0,0,0,0,0,-0.2496,-0.2499,-0.2496,-0.2499,-0.2499,-0.2513,-0.2484,-0.2478,-0.2462,-0.2456,-0.2414,-0.2405,-0.2387,-0.2359,-0.2354,-0.2339,-0.2337,-0.2305,-0.2306,-0.2307,-0.2306,-0.2307,-0.2307,0,0,0,0,0,-0.2495,-0.2508,-0.2496,-0.2498,-0.2499,-0.2513,-0.2511,-0.2489,-0.2462,-0.2462,-0.2429,-0.2406,-0.2359,-0.2358,-0.2352,-0.2335,-0.2305,-0.2306,-0.2307,-0.2305,-0.2306,-0.2307,0,0,0,0,0,0,-0.2494,-0.2504,-0.2491,-0.2505,-0.2506,-0.2505,-0.25,-0.2485,-0.2459,-0.2442,-0.241,-0.2401,-0.2376,-0.2363,-0.2362,-0.233,-0.2328,-0.2328,-0.233,-0.233,-0.2331,-0.234,-0.2336,0,0,0,0,0,-0.2495,-0.2501,-0.2509,-0.2515,-0.2517,-0.2503,-0.25,-0.2488,-0.2473,-0.2458,-0.2429,-0.2399,-0.2379,-0.2359,-0.2345,-0.2326,-0.2296,-0.2313,-0.2313,-0.2314,-0.2319,-0.2259,-0.2254,-0.2309,-0.2309,-0.2309,0,0,-0.2495,-0.25,-0.2503,-0.2514,-0.2507,-0.2518,-0.2496,-0.2494,-0.2489,-0.2454,-0.2426,-0.2401,-0.2377,-0.2356,-0.2343,-0.2338,-0.2283,-0.2315,-0.2315,-0.232,-0.2259,-0.2253,-0.2248,-0.231,-0.231,-0.231,0,0,-0.2512,-0.2504,-0.2518,-0.2523,-0.2522,-0.2518,-0.2516,-0.2508,-0.2487,-0.2471,-0.244,-0.2407,-0.2379,-0.2354,-0.2339,-0.2338,-0.2293,-0.2331,-0.2332,-0.2273,-0.2268,-0.2262,-0.2214,-0.2204,-0.2325,-0.2325,-0.2325,0,-0.2506,-0.2526,-0.2523,-0.2539,-0.2538,-0.2519,-0.253,-0.2517,-0.2498,-0.2473,-0.2462,-0.2398,-0.2378,-0.2339,-0.2345,-0.2336,-0.23,-0.2326,-0.2272,-0.2266,-0.2261,-0.2212,-0.2201,-0.2325,-0.2325,-0.2325,-0.2325,0,-0.254,-0.2547,-0.2555,-0.2564,-0.2566,-0.2571,-0.2562,-0.2544,-0.2511,-0.2488,-0.2438,-0.2407,-0.2367,-0.2355,-0.2352,-0.2304,-0.229,-0.2281,-0.2265,-0.2254,-0.2204,-0.2193,-0.2325,-0.2325,-0.2325,-0.2325,0,0,-0.2531,-0.2572,-0.2566,-0.2572,-0.2574,-0.258,-0.2568,-0.2548,-0.252,-0.2484,-0.2441,-0.2406,-0.2372,-0.2356,-0.2331,-0.2286,-0.2222,-0.2273,-0.2269,-0.2216,-0.2091,-0.2095,-0.2083,-0.2194,-0.2192,-0.2191,-0.2069,0,-0.2544,-0.2587,-0.2596,-0.261,-0.2623,-0.2603,-0.2599,-0.2572,-0.253,-0.2486,-0.2428,-0.2385,-0.2377,-0.2348,-0.2303,-0.2246,-0.2193,-0.2256,-0.2117,-0.2113,-0.2111,-0.2071,-0.1837,-0.1711,-0.2058,-0.2056,-0.2055,0,-0.2553,-0.2583,-0.2612,-0.2629,-0.263,-0.2628,-0.259,-0.2584,-0.2523,-0.2488,-0.2423,-0.2383,-0.2317,-0.2312,-0.2189,-0.2226,-0.2166,-0.2116,-0.211,-0.2109,-0.2097,-0.1779,-0.1677,-0.2036,-0.2037,-0.2039,-0.204,0,-0.2535,-0.2576,-0.2597,-0.2604,-0.2631,-0.2614,-0.2609,-0.2566,-0.2538,-0.2471,-0.2435,-0.2355,-0.2301,-0.2218,-0.2139,-0.2151,-0.2004,-0.1999,-0.1939,-0.1938,-0.1711,-0.1695,-0.1902,-0.1902,-0.1902,-0.1903,-0.1903,0,-0.2534,-0.2538,-0.2586,-0.2595,-0.2584,-0.2609,-0.2569,-0.2548,-0.2512,-0.2455,-0.2427,-0.2366,-0.2273,-0.2188,-0.2121,-0.1999,-0.1979,-0.193,-0.1902,-0.1708,-0.1694,-0.1962,-0.1971,-0.1898,-0.1899,-0.19,-0.1901,0,-0.2487,-0.2531,-0.2542,-0.2576,-0.2571,-0.2552,-0.2532,-0.2514,-0.2493,-0.2415,-0.2393,-0.2344,-0.2234,-0.215,-0.2008,-0.1964,-0.1857,-0.182,-0.1617,-0.1569,-0.1833,-0.1843,-0.1722,-0.1721,-0.172,-0.172,-0.1719,0,-0.2467,-0.2481,-0.25,-0.2494,-0.2493,-0.2477,-0.2466,-0.247,-0.2432,-0.2385,-0.2337,-0.2259,-0.2148,-0.1985,-0.1839,-0.1691,-0.1804,-0.1482,-0.1476,-0.1828,-0.1812,-0.1823,-0.1834,-0.1155,-0.115,-0.1145,-0.1142,0,-0.2412,-0.2414,-0.2424,-0.2405,-0.2391,-0.237,-0.2342,-0.2314,-0.2303,-0.2243,-0.2151,-0.2078,-0.1923,-0.1678,-0.1557,-0.1449,-0.1494,-0.1399,-0.1745,-0.1285,-0.1295,-0.1281,-0.1308,-0.1104,-0.1108,-0.1111,-0.1113,-0.1115,-0.2328,-0.2315,-0.2315,-0.2287,-0.2269,-0.2207,-0.2133,-0.2114,-0.202,-0.185,-0.191,-0.1698,-0.1635,-0.1292,-0.1204,-0.1119,-0.1238,-0.1176,-0.1185,-0.12,-0.1204,-0.1218,-0.1012,-0.1015,-0.1018,-0.102,-0.1022,0,-0.2205,-0.2202,-0.2194,-0.2121,-0.2047,-0.2074,-0.2004,-0.1901,-0.1731,-0.1588,-0.1447,-0.1162,-0.0988,-0.0962,-0.0748,-0.0749,-0.0684,-0.0745,-0.0655,-0.069,-0.0721,-0.0701,-0.0375,-0.0374,-0.0373,-0.0373,0,0,-0.2124,-0.2081,-0.2091,-0.1907,-0.1851,-0.1688,-0.1619,-0.1489,-0.1349,-0.1057,-0.0864,-0.0816,-0.0857,-0.0595,-0.0554,-0.0452,-0.056,-0.0392,-0.0889,-0.0811,-0.0843,-0.0928,-0.0931,0,0,0,0,0]},{"header":{"parameterUnit":"m.s-1","parameterCategory":2,"la1":30.2991,"la2":30.254,"lo1":-89.0895,"lo2":-89.0444,"dy":0.0017,"dx":0.0017,"nx":28,"ny":28,"refTime":"2023-11-06T09:00:00:Z","depth":"2","parameterNumber":3,"parameterNumberName":"V-component_of_CURRENTS"},"data":[0,0,0,0,0,0,0,0,0,0,0,0,0,0,0,0,0,0,0,0,0,0,0,0,0,0,0,0,0,0,0,0,0,0,0,0,0,0,0,0,0,0,0,0,0,0,0,0,0,0,0,0,0,0,0,0,0,0,0.0066,0.0067,0,0.0178,0.018,0.0181,0.02,0.0199,0.0198,0.0197,0.0283,0.0287,0.029,0,0,0,0,0,0,0,0,0,0,0,0,0,-0.0047,-0.0045,0.0066,0.0067,0.0068,0.0178,0.018,0.0181,0.0201,0.0199,0.0198,0.0197,0.0282,0.0286,0.029,0,0,0,0,0,0,0,0,0,0,0,0,0,0.0029,-0.0045,0.0065,0.009,0.0093,0.0178,0.018,0.0182,0.0201,0.0199,0.0198,0.0196,0.0281,0.0286,0.0291,0.0354,0,0,0.0306,0.0308,0,0,0,0,0,0,0,0,0.0024,0.0033,0.0085,0.0088,0.0092,0.0173,0.0172,0.0238,0.0201,0.0161,0.0197,0.0195,0.0244,0.0252,0.0279,0.0358,0.0361,0.0306,0.0309,0.0311,0.0313,0,0,0,0,0,0,0,0.0019,0.0029,0.0112,0.0087,0.0091,0.0125,0.0133,0.0185,0.0211,0.0165,0.0166,0.0177,0.0246,0.0274,0.0281,0.0363,0.0306,0.0311,0.0314,0.0316,0.0447,0.0447,0,0,0,0,0,0,0.0,0.0023,0.0108,0.0115,0.0052,0.0128,0.0137,0.0149,0.0211,0.0219,0.0178,0.0178,0.0267,0.0275,0.0284,0.0293,0.0311,0.0316,0.0319,0.0446,0.0447,0.0447,0,0,0,0,0,0,-0.0003,0.0007,0.0103,0.007,0.0085,0.0131,0.0145,0.0152,0.0153,0.0221,0.0228,0.0166,0.0266,0.0277,0.0316,0.0299,0.0318,0.0323,0.0446,0.0446,0.0447,0.0355,0,0,0,0,0,0,-0.0006,0.0005,-0.0002,0.0069,0.0086,0.0136,0.0147,0.0156,0.0163,0.0162,0.0215,0.0223,0.0265,0.0309,0.0321,0.0306,0.0327,0.0445,0.0446,0.0447,0.0357,0.0352,0.0348,0,0,0,0,0,-0.0011,-0.0011,-0.0003,0.0007,0.0078,0.0136,0.0148,0.0177,0.0163,0.0169,0.0203,0.022,0.0323,0.0314,0.0328,0.0313,0.0445,0.0446,0.0447,0.0359,0.0353,0.0348,0,0,0,0,0,0,-0.0057,-0.0007,0.0003,0.0018,0.0064,0.0138,0.0142,0.016,0.0194,0.0179,0.0234,0.0246,0.0276,0.0315,0.0303,0.0358,0.0384,0.0388,0.0313,0.0308,0.0303,0.0324,0.0331,0,0,0,0,0,-0.0071,-0.0067,-0.0003,0.0006,0.0022,0.0075,0.0095,0.0116,0.016,0.0171,0.0208,0.0251,0.0301,0.0316,0.037,0.04,0.0446,0.0401,0.0396,0.0392,0.0421,0.0471,0.0473,0.0451,0.0451,0.0451,0,0,-0.0085,-0.0059,-0.0056,-0.0005,0.0027,0.0059,0.0082,0.0104,0.013,0.0177,0.0204,0.024,0.0309,0.0345,0.036,0.0366,0.0416,0.0393,0.0388,0.0421,0.0473,0.0475,0.0476,0.0452,0.0452,0.0452,0,0,-0.0108,-0.0092,-0.0096,-0.0065,-0.0026,0.0023,0.002,0.0077,0.0096,0.0139,0.0175,0.0209,0.0273,0.0326,0.036,0.037,0.0396,0.0361,0.0346,0.0392,0.0394,0.0397,0.0424,0.0429,0.035,0.0349,0.0349,0,-0.0133,-0.012,-0.0085,-0.0079,-0.0054,-0.0,0.0015,0.0057,0.0118,0.0141,0.0132,0.024,0.0279,0.0347,0.0341,0.036,0.0378,0.035,0.0384,0.0388,0.0392,0.042,0.0427,0.0345,0.0346,0.0346,0.0346,0,-0.015,-0.0144,-0.0144,-0.0113,-0.0078,-0.0059,0.0008,0.0036,0.006,0.0104,0.0159,0.0222,0.0288,0.0288,0.0317,0.036,0.0359,0.0372,0.0389,0.0388,0.0418,0.0427,0.0339,0.034,0.0342,0.0343,0,0,-0.0198,-0.0163,-0.0168,-0.0157,-0.0099,-0.0066,-0.002,0.0053,0.0082,0.0126,0.0171,0.0242,0.0259,0.0304,0.0331,0.0364,0.0384,0.0363,0.0367,0.0376,0.0461,0.0458,0.0469,0.0381,0.0383,0.0385,0.0456,0,-0.0224,-0.0226,-0.0185,-0.0165,-0.0156,-0.0083,-0.0038,0.0026,0.0084,0.014,0.0204,0.0255,0.027,0.0281,0.032,0.0381,0.041,0.0363,0.0477,0.0481,0.0467,0.0481,0.0377,0.0432,0.0465,0.0467,0.0468,0,-0.026,-0.0254,-0.0252,-0.0193,-0.0179,-0.015,-0.0063,-0.0014,0.0083,0.0122,0.0187,0.0239,0.0311,0.0311,0.0424,0.0381,0.0421,0.046,0.0464,0.0514,0.0498,0.0449,0.0449,0.0485,0.0484,0.0482,0.0481,0,-0.0329,-0.0294,-0.0292,-0.0279,-0.0206,-0.0182,-0.0132,-0.0039,0.0007,0.0104,0.0139,0.024,0.0286,0.0361,0.0441,0.0425,0.0554,0.0549,0.0593,0.0592,0.056,0.0554,0.0637,0.0637,0.0637,0.0637,0.0636,0,-0.0375,-0.0377,-0.0331,-0.0337,-0.0323,-0.0249,-0.021,-0.0143,-0.0048,0.0009,0.0108,0.0179,0.0296,0.0384,0.0448,0.0551,0.0565,0.0613,0.0623,0.0522,0.0512,0.0615,0.0611,0.0639,0.0639,0.0638,0.0638,0,-0.0461,-0.0432,-0.0434,-0.0379,-0.0365,-0.0364,-0.0281,-0.0241,-0.0147,-0.0066,-0.004,0.0129,0.0256,0.0368,0.0506,0.0561,0.0657,0.0685,0.0551,0.0545,0.066,0.0651,0.0756,0.0757,0.0758,0.0758,0.0759,0,-0.0502,-0.052,-0.0499,-0.0506,-0.0488,-0.0466,-0.044,-0.0325,-0.0259,-0.0087,-0.0041,0.0106,0.0242,0.0443,0.0528,0.0645,0.0683,0.0641,0.062,0.068,0.0678,0.0668,0.0658,0.0523,0.0521,0.052,0.0519,0,-0.0584,-0.0589,-0.0593,-0.062,-0.0609,-0.0567,-0.0506,-0.0457,-0.0298,-0.0199,-0.0017,0.0103,0.0279,0.0396,0.0529,0.0583,0.0615,0.0623,0.0733,0.0512,0.0467,0.0463,0.046,0.0508,0.0509,0.051,0.0511,0.0511,-0.0652,-0.0687,-0.0702,-0.0718,-0.0702,-0.0637,-0.0583,-0.0476,-0.0352,-0.0181,-0.0074,0.0106,0.0195,0.0379,0.046,0.0542,0.0573,0.0587,0.0588,0.059,0.0554,0.0513,0.0555,0.0556,0.0557,0.0558,0.0559,0,-0.0725,-0.0753,-0.0788,-0.0777,-0.0753,-0.0723,-0.0595,-0.0512,-0.0348,-0.0217,-0.0086,0.0018,0.0144,0.0293,0.0386,0.0459,0.0431,0.0488,0.042,0.0428,0.0437,0.0391,0.035,0.035,0.0351,0.0351,0,0,-0.0764,-0.0826,-0.084,-0.0819,-0.0796,-0.0703,-0.0616,-0.0496,-0.0357,-0.0215,-0.0092,-0.0054,0.0163,0.0175,0.023,0.0315,0.0362,0.0315,0.0461,0.0375,0.0384,0.0457,0.0392,0,0,0,0,0]}],[{"header":{"parameterUnit":"m.s-1","parameterCategory":2,"la1":30.2991,"la2":30.254,"lo1":-89.0895,"lo2":-89.0444,"dy":0.0017,"dx":0.0017,"nx":28,"ny":28,"refTime":"2023-11-06T09:00:00:Z","depth":"4","parameterNumber":2,"parameterNumberName":"U-component_of_CURRENTS"},"data":[0,0,0,0,0,0,0,0,0,0,0,0,0,0,0,0,0,0,0,0,0,0,0,0,0,0,0,0,0,0,0,0,0,0,0,0,0,0,0,0,0,0,0,0,0,0,0,0,0,0,0,0,0,0,0,0,0,0,-0.0929,-0.093,0,-0.095,-0.095,-0.095,-0.094,-0.094,-0.094,-0.094,-0.0966,-0.0967,-0.0968,0,0,0,0,0,0,0,0,0,0,0,0,0,-0.0841,-0.0842,-0.0929,-0.093,-0.0931,-0.095,-0.095,-0.095,-0.0939,-0.094,-0.094,-0.094,-0.0966,-0.0967,-0.0968,0,0,0,0,0,0,0,0,0,0,0,0,0,-0.0866,-0.0843,-0.0929,-0.0933,-0.0934,-0.095,-0.095,-0.0949,-0.0939,-0.094,-0.094,-0.094,-0.0966,-0.0967,-0.0968,-0.097,0,0,-0.097,-0.0971,0,0,0,0,0,0,0,0,-0.0864,-0.0868,-0.0932,-0.0933,-0.0935,-0.0949,-0.0929,-0.0959,-0.0939,-0.093,-0.094,-0.094,-0.0966,-0.0967,-0.096,-0.0971,-0.0972,-0.097,-0.0971,-0.0971,-0.0972,0,0,0,0,0,0,0,-0.0863,-0.0867,-0.093,-0.0933,-0.0935,-0.0922,-0.0925,-0.0934,-0.0941,-0.0931,-0.0932,-0.0946,-0.0965,-0.0959,-0.096,-0.0972,-0.097,-0.0971,-0.0972,-0.0972,-0.1103,-0.1106,0,0,0,0,0,0,-0.0877,-0.0866,-0.0929,-0.0931,-0.0907,-0.0924,-0.0927,-0.0938,-0.0941,-0.0943,-0.0946,-0.0945,-0.0957,-0.0959,-0.0961,-0.1037,-0.0971,-0.0972,-0.0973,-0.11,-0.1104,-0.1107,0,0,0,0,0,0,-0.0875,-0.0882,-0.0929,-0.0905,-0.0911,-0.0927,-0.0938,-0.0939,-0.0959,-0.0953,-0.0955,-0.0969,-0.0957,-0.096,-0.0999,-0.1035,-0.0973,-0.0973,-0.1097,-0.1102,-0.1106,-0.1141,0,0,0,0,0,0,-0.0872,-0.0881,-0.0895,-0.0906,-0.0913,-0.0952,-0.0939,-0.0939,-0.0969,-0.0969,-0.0974,-0.0974,-0.0958,-0.0998,-0.1,-0.1035,-0.0974,-0.1093,-0.1099,-0.1104,-0.1136,-0.1146,-0.1155,0,0,0,0,0,-0.0869,-0.0889,-0.0895,-0.0903,-0.0931,-0.0954,-0.0956,-0.0962,-0.097,-0.098,-0.0995,-0.0976,-0.1036,-0.1001,-0.1003,-0.1039,-0.1091,-0.1097,-0.1104,-0.1132,-0.1144,-0.1155,0,0,0,0,0,0,-0.0866,-0.0891,-0.0897,-0.0927,-0.0947,-0.0955,-0.0965,-0.0982,-0.0999,-0.1004,-0.1,-0.1002,-0.1053,-0.1052,-0.1014,-0.11,-0.1066,-0.1073,-0.1087,-0.1099,-0.1108,-0.1141,-0.0975,0,0,0,0,0,-0.0872,-0.0889,-0.0914,-0.094,-0.0947,-0.0963,-0.0976,-0.0987,-0.1006,-0.1014,-0.102,-0.1044,-0.1078,-0.1093,-0.111,-0.1149,-0.1143,-0.1183,-0.1192,-0.12,-0.1234,-0.1258,-0.1271,-0.1129,-0.1129,-0.1129,0,0,-0.0876,-0.0898,-0.0906,-0.094,-0.0948,-0.0954,-0.0969,-0.0997,-0.1025,-0.1015,-0.1049,-0.1071,-0.1098,-0.1141,-0.1165,-0.1145,-0.1231,-0.1208,-0.1214,-0.1245,-0.1266,-0.128,-0.1292,-0.1134,-0.1133,-0.1132,0,0,-0.089,-0.0912,-0.0923,-0.0945,-0.0976,-0.0971,-0.0989,-0.1011,-0.1044,-0.1082,-0.1098,-0.1148,-0.1175,-0.1208,-0.1229,-0.1308,-0.1279,-0.1325,-0.1393,-0.1415,-0.1426,-0.1436,-0.1404,-0.1411,-0.1328,-0.1328,-0.1328,0,-0.089,-0.0917,-0.0933,-0.0954,-0.0972,-0.0981,-0.0996,-0.1026,-0.1066,-0.1097,-0.11,-0.1192,-0.1208,-0.1292,-0.1336,-0.1326,-0.1325,-0.1336,-0.1424,-0.1434,-0.1443,-0.1409,-0.1416,-0.1331,-0.133,-0.133,-0.133,0,-0.0909,-0.0935,-0.0946,-0.0959,-0.0977,-0.0997,-0.1033,-0.106,-0.1089,-0.1116,-0.1213,-0.126,-0.1325,-0.1343,-0.137,-0.1469,-0.1438,-0.1424,-0.1383,-0.1459,-0.1418,-0.1424,-0.1334,-0.1333,-0.1333,-0.1332,0,0,-0.0881,-0.0942,-0.094,-0.0961,-0.0989,-0.0999,-0.1044,-0.108,-0.1125,-0.1182,-0.1255,-0.1355,-0.1406,-0.1444,-0.1495,-0.1537,-0.1591,-0.1535,-0.1535,-0.1483,-0.1615,-0.1417,-0.1404,-0.1596,-0.1599,-0.1601,-0.1542,0,-0.0882,-0.0903,-0.0947,-0.0968,-0.0973,-0.1017,-0.1054,-0.1099,-0.1151,-0.1216,-0.1309,-0.1388,-0.1441,-0.1501,-0.1563,-0.1608,-0.162,-0.1607,-0.157,-0.1569,-0.1367,-0.141,-0.1609,-0.1546,-0.1548,-0.1549,-0.155,0,-0.0873,-0.089,-0.0906,-0.0974,-0.0983,-0.101,-0.1064,-0.1122,-0.1212,-0.127,-0.1378,-0.1436,-0.1572,-0.1579,-0.1692,-0.1689,-0.1674,-0.1673,-0.1669,-0.1488,-0.1386,-0.147,-0.1561,-0.156,-0.1559,-0.1558,-0.1558,0,-0.0807,-0.0865,-0.0872,-0.0894,-0.0957,-0.1007,-0.1052,-0.1132,-0.1181,-0.1329,-0.135,-0.1516,-0.1603,-0.1654,-0.1659,-0.1707,-0.1695,-0.1736,-0.152,-0.1503,-0.168,-0.167,-0.1761,-0.1761,-0.1761,-0.1761,-0.1762,0,-0.078,-0.0797,-0.0854,-0.0868,-0.0898,-0.0985,-0.1062,-0.1127,-0.1225,-0.1243,-0.1405,-0.1419,-0.1636,-0.1632,-0.1649,-0.1578,-0.1675,-0.1543,-0.1488,-0.169,-0.1684,-0.168,-0.1672,-0.1759,-0.176,-0.176,-0.176,0,-0.072,-0.0749,-0.0777,-0.0851,-0.0875,-0.0913,-0.1034,-0.1063,-0.1191,-0.1223,-0.126,-0.1384,-0.1417,-0.1485,-0.1542,-0.1529,-0.1476,-0.1385,-0.1536,-0.1487,-0.1288,-0.1283,-0.1246,-0.1239,-0.1233,-0.1228,-0.1224,0,-0.0689,-0.0689,-0.0744,-0.0747,-0.0798,-0.0878,-0.0892,-0.1023,-0.1043,-0.1129,-0.109,-0.1166,-0.1226,-0.116,-0.126,-0.1247,-0.1221,-0.1202,-0.1354,-0.1292,-0.1243,-0.1247,-0.125,-0.1214,-0.1213,-0.1211,-0.1209,0,-0.0632,-0.0655,-0.0673,-0.0674,-0.0692,-0.0721,-0.0776,-0.0774,-0.0881,-0.0964,-0.093,-0.0954,-0.0964,-0.1056,-0.1019,-0.0998,-0.1261,-0.1141,-0.1158,-0.1301,-0.1253,-0.1211,-0.1221,-0.1188,-0.1191,-0.1193,-0.1195,0,-0.0588,-0.058,-0.0589,-0.0599,-0.0593,-0.0565,-0.0632,-0.0639,-0.0674,-0.077,-0.0718,-0.0793,-0.0905,-0.0905,-0.0831,-0.0843,-0.0912,-0.0955,-0.0984,-0.1008,-0.0961,-0.0866,-0.0641,0,0,0,0,0,-0.0534,-0.0512,-0.0505,-0.0498,-0.049,-0.049,-0.0517,-0.058,-0.0649,-0.0584,-0.0677,-0.0651,-0.0673,-0.07,-0.0681,-0.0742,-0.0908,-0.0715,-0.0969,-0.1072,-0.1096,-0.1065,0,0,0,0,0,0,-0.0488,-0.0476,-0.0474,-0.0403,-0.0383,-0.0356,-0.0372,-0.0423,-0.0428,-0.0512,-0.0528,-0.0596,-0.0626,-0.0671,-0.0661,-0.067,-0.0816,-0.0757,-0.0755,-0.1058,-0.108,-0.11,-0.1076,0,0,0,0,0]},{"header":{"parameterUnit":"m.s-1","parameterCategory":2,"la1":30.2991,"la2":30.254,"lo1":-89.0895,"lo2":-89.0444,"dy":0.0017,"dx":0.0017,"nx":28,"ny":28,"refTime":"2023-11-06T09:00:00:Z","depth":"4","parameterNumber":3,"parameterNumberName":"V-component_of_CURRENTS"},"data":[0,0,0,0,0,0,0,0,0,0,0,0,0,0,0,0,0,0,0,0,0,0,0,0,0,0,0,0,0,0,0,0,0,0,0,0,0,0,0,0,0,0,0,0,0,0,0,0,0,0,0,0,0,0,0,0,0,0,-0.0055,-0.0055,0,-0.0054,-0.0055,-0.0055,-0.0039,-0.0038,-0.0037,-0.0036,-0.001,-0.001,-0.001,0,0,0,0,0,0,0,0,0,0,0,0,0,-0.0059,-0.0059,-0.0055,-0.0055,-0.0054,-0.0054,-0.0055,-0.0055,-0.0039,-0.0038,-0.0037,-0.0035,-0.001,-0.001,-0.001,0,0,0,0,0,0,0,0,0,0,0,0,0,-0.0062,-0.0059,-0.0055,-0.0042,-0.004,-0.0054,-0.0055,-0.0055,-0.0039,-0.0038,-0.0036,-0.0035,-0.001,-0.001,-0.001,-0.0039,0,0,-0.0011,-0.0011,0,0,0,0,0,0,0,0,-0.0062,-0.0063,-0.0044,-0.0043,-0.0041,-0.004,-0.0046,-0.0047,-0.0039,-0.0045,-0.0036,-0.0034,-0.0015,-0.0015,-0.0026,-0.0038,-0.0037,-0.0011,-0.0011,-0.0011,-0.0011,0,0,0,0,0,0,0,-0.0062,-0.0063,-0.006,-0.0044,-0.0042,-0.0041,-0.0041,-0.0047,-0.0042,-0.0045,-0.0042,-0.0034,-0.0014,-0.0026,-0.0025,-0.0037,-0.0011,-0.0011,-0.0011,-0.0011,-0.0071,-0.0073,0,0,0,0,0,0,-0.0052,-0.0063,-0.006,-0.006,-0.0042,-0.0042,-0.0041,-0.0046,-0.0042,-0.0039,-0.0035,-0.0033,-0.0026,-0.0025,-0.0024,-0.007,-0.0011,-0.0011,-0.0011,-0.007,-0.0072,-0.0073,0,0,0,0,0,0,-0.0052,-0.0053,-0.006,-0.0056,-0.0056,-0.0042,-0.0049,-0.0047,-0.0051,-0.0034,-0.0031,-0.0039,-0.0025,-0.0023,-0.0038,-0.0068,-0.0011,-0.0012,-0.0068,-0.007,-0.0072,-0.0155,0,0,0,0,0,0,-0.0053,-0.0053,-0.0057,-0.0056,-0.0056,-0.0075,-0.0049,-0.0048,-0.0046,-0.0043,-0.0037,-0.0033,-0.0024,-0.0038,-0.0038,-0.0067,-0.0012,-0.0066,-0.0069,-0.0072,-0.015,-0.0159,-0.0167,0,0,0,0,0,-0.0053,-0.0069,-0.0058,-0.0057,-0.0061,-0.0076,-0.0077,-0.0065,-0.0047,-0.0062,-0.0057,-0.0033,-0.0055,-0.004,-0.0039,-0.0069,-0.0065,-0.0068,-0.0071,-0.0146,-0.0157,-0.0167,0,0,0,0,0,0,-0.0073,-0.0069,-0.0056,-0.0069,-0.0071,-0.0071,-0.0079,-0.0068,-0.0078,-0.0074,-0.0054,-0.0052,-0.0077,-0.0062,-0.0045,-0.0094,-0.0055,-0.0059,-0.0112,-0.0122,-0.0131,-0.013,-0.0012,0,0,0,0,0,-0.0078,-0.0089,-0.0082,-0.0092,-0.0094,-0.0086,-0.0088,-0.0084,-0.0086,-0.0088,-0.0088,-0.0086,-0.0095,-0.0097,-0.0104,-0.0132,-0.0085,-0.015,-0.0158,-0.0166,-0.0165,-0.0123,-0.0127,-0.0084,-0.0084,-0.0084,0,0,-0.0086,-0.0084,-0.0089,-0.0097,-0.0097,-0.013,-0.0086,-0.0098,-0.0131,-0.0085,-0.0133,-0.0118,-0.0109,-0.0144,-0.0153,-0.0132,-0.0154,-0.017,-0.0176,-0.0172,-0.0127,-0.0131,-0.0134,-0.0086,-0.0086,-0.0085,0,0,-0.0119,-0.011,-0.0134,-0.0146,-0.0148,-0.0155,-0.0158,-0.0167,-0.0172,-0.021,-0.0185,-0.019,-0.021,-0.0212,-0.0212,-0.0272,-0.0201,-0.0268,-0.0311,-0.0271,-0.0274,-0.0276,-0.0218,-0.0213,-0.0271,-0.0271,-0.0271,0,-0.013,-0.0159,-0.0143,-0.0177,-0.0197,-0.0172,-0.0216,-0.023,-0.0246,-0.0254,-0.0236,-0.0265,-0.0249,-0.0286,-0.0296,-0.0293,-0.024,-0.0274,-0.0281,-0.0282,-0.0282,-0.0222,-0.0216,-0.0276,-0.0275,-0.0275,-0.0274,0,-0.0185,-0.0213,-0.023,-0.0272,-0.0296,-0.0326,-0.0341,-0.0364,-0.0363,-0.0368,-0.0398,-0.0384,-0.0389,-0.0391,-0.0357,-0.0363,-0.0313,-0.0296,-0.0252,-0.0291,-0.0225,-0.0218,-0.0282,-0.028,-0.0279,-0.0278,0,0,-0.021,-0.0258,-0.027,-0.0303,-0.0347,-0.0375,-0.0432,-0.047,-0.0493,-0.051,-0.0543,-0.0549,-0.051,-0.0506,-0.047,-0.0432,-0.0381,-0.0356,-0.0351,-0.0292,-0.0262,-0.0277,-0.027,-0.0349,-0.0348,-0.0348,-0.0213,0,-0.026,-0.0336,-0.0356,-0.0446,-0.0486,-0.05,-0.0559,-0.0589,-0.0592,-0.062,-0.0601,-0.062,-0.0564,-0.0555,-0.0512,-0.0399,-0.0365,-0.0417,-0.0237,-0.0231,-0.0236,-0.0264,-0.0346,-0.0207,-0.0205,-0.0204,-0.0203,0,-0.0319,-0.0358,-0.0447,-0.0524,-0.0545,-0.0605,-0.0671,-0.0715,-0.0737,-0.0732,-0.0733,-0.0705,-0.0661,-0.0615,-0.0459,-0.0481,-0.038,-0.0303,-0.0296,-0.0275,-0.0234,-0.016,-0.0188,-0.019,-0.0191,-0.0192,-0.0192,0,-0.0346,-0.0432,-0.0503,-0.0533,-0.0615,-0.0663,-0.0711,-0.075,-0.0771,-0.0795,-0.0788,-0.0753,-0.0702,-0.0595,-0.0436,-0.0422,-0.026,-0.0226,-0.0164,-0.0162,-0.0148,-0.0147,-0.0147,-0.0148,-0.0148,-0.0148,-0.0149,0,-0.0399,-0.0457,-0.0521,-0.0564,-0.0654,-0.07,-0.078,-0.0811,-0.0836,-0.0839,-0.0835,-0.0808,-0.0682,-0.0582,-0.0453,-0.0282,-0.0272,-0.0172,-0.0136,-0.0186,-0.0191,-0.0141,-0.0143,-0.0143,-0.0144,-0.0145,-0.0146,0,-0.0425,-0.0467,-0.055,-0.0638,-0.0671,-0.0737,-0.082,-0.0846,-0.0869,-0.0866,-0.0871,-0.0805,-0.0648,-0.055,-0.0354,-0.0283,-0.015,-0.011,-0.0173,-0.0142,-0.0063,-0.007,0.0011,0.0011,0.0012,0.0012,0.0012,0,-0.0445,-0.0487,-0.0593,-0.0638,-0.0684,-0.0773,-0.0815,-0.0865,-0.0855,-0.0843,-0.0811,-0.0718,-0.0653,-0.0404,-0.0299,-0.0117,-0.0102,-0.0057,-0.0062,-0.0077,-0.005,-0.0057,-0.0065,0.0013,0.0013,0.0013,0.0013,0,-0.0474,-0.0512,-0.0574,-0.0654,-0.0717,-0.0777,-0.0819,-0.0815,-0.0825,-0.0844,-0.0744,-0.0672,-0.051,-0.0357,-0.0254,-0.0122,-0.0098,-0.0052,-0.0051,-0.0054,-0.0074,-0.0049,-0.0056,0.0014,0.0014,0.0014,0.0014,0,-0.0488,-0.0528,-0.0595,-0.0667,-0.0727,-0.0741,-0.0787,-0.0757,-0.0764,-0.0724,-0.068,-0.0577,-0.0511,-0.0357,-0.0248,-0.0146,-0.0091,-0.0074,-0.007,-0.007,-0.0157,-0.0198,-0.0118,0,0,0,0,0,-0.0493,-0.0527,-0.0593,-0.0665,-0.071,-0.0738,-0.0754,-0.0772,-0.0765,-0.0683,-0.0684,-0.0547,-0.0395,-0.0336,-0.022,-0.0219,-0.0076,-0.0086,-0.0054,0.0021,0.0019,-0.0074,0,0,0,0,0,0,-0.0499,-0.0556,-0.0584,-0.0626,-0.0659,-0.0697,-0.0702,-0.0706,-0.065,-0.064,-0.0543,-0.0538,-0.0369,-0.0447,-0.022,-0.0194,-0.0165,-0.0021,-0.0019,0.0021,0.002,0.0019,-0.0077,0,0,0,0,0]}]]